TimeEDT,TemperatureF,Dew PointF,Humidity,Sea Level PressureIn,VisibilityMPH,Wind Direction,Wind SpeedMPH,Gust SpeedMPH,PrecipitationIn,Events,Conditions,WindDirDegrees,DateUTC
12:33 AM,35.6,21.2,56,30.02,10.0,Calm,Calm,-,N/A,,Clear,0,2013-03-24 04:33:00
12:51 AM,33.8,21.2,60,30.02,10.0,Calm,Calm,-,N/A,,Clear,0,2013-03-24 04:51:00
1:12 AM,33.8,21.2,60,30.02,10.0,Calm,Calm,-,N/A,,Clear,0,2013-03-24 05:12:00
1:33 AM,32.0,21.2,64,30.01,10.0,Calm,Calm,-,N/A,,Clear,0,2013-03-24 05:33:00
1:51 AM,32.0,21.2,64,30.01,10.0,Calm,Calm,-,N/A,,Clear,0,2013-03-24 05:51:00
2:12 AM,32.0,19.4,60,30.02,10.0,Calm,Calm,-,N/A,,Clear,0,2013-03-24 06:12:00
2:33 AM,32.0,21.2,64,30.01,10.0,North,3.5,-,N/A,,Clear,360,2013-03-24 06:33:00
2:54 AM,30.2,21.2,69,30.01,10.0,Calm,Calm,-,N/A,,Clear,0,2013-03-24 06:54:00
3:12 AM,30.2,21.2,69,30.00,10.0,Calm,Calm,-,N/A,,Clear,0,2013-03-24 07:12:00
3:33 AM,32.0,21.2,64,29.99,10.0,North,3.5,-,N/A,,Clear,350,2013-03-24 07:33:00
3:54 AM,28.4,21.2,74,30.01,10.0,Calm,Calm,-,N/A,,Clear,0,2013-03-24 07:54:00
4:12 AM,28.4,23.0,80,30.02,10.0,Calm,Calm,-,N/A,,Clear,0,2013-03-24 08:12:00
4:33 AM,28.4,21.2,74,30.02,10.0,Calm,Calm,-,N/A,,Clear,0,2013-03-24 08:33:00
4:54 AM,26.6,23.0,86,30.02,10.0,Calm,Calm,-,N/A,,Clear,0,2013-03-24 08:54:00
5:12 AM,28.4,23.0,80,30.03,10.0,Calm,Calm,-,N/A,,Clear,0,2013-03-24 09:12:00
5:33 AM,28.4,23.0,80,30.02,10.0,Calm,Calm,-,N/A,,Clear,0,2013-03-24 09:33:00
5:54 AM,28.4,23.0,80,30.01,10.0,Calm,Calm,-,N/A,,Clear,0,2013-03-24 09:54:00
6:12 AM,28.4,23.0,80,30.00,10.0,Calm,Calm,-,N/A,,Clear,0,2013-03-24 10:12:00
6:33 AM,26.6,21.2,80,30.00,10.0,Calm,Calm,-,N/A,,Clear,0,2013-03-24 10:33:00
6:54 AM,28.4,21.2,74,30.00,10.0,Calm,Calm,-,N/A,,Clear,0,2013-03-24 10:54:00
7:12 AM,28.4,23.0,80,30.01,10.0,Calm,Calm,-,N/A,,Clear,0,2013-03-24 11:12:00
7:33 AM,28.4,23.0,80,30.01,10.0,Calm,Calm,-,N/A,,Clear,0,2013-03-24 11:33:00
7:54 AM,30.2,24.8,80,30.01,10.0,Calm,Calm,-,N/A,,Clear,0,2013-03-24 11:54:00
8:12 AM,30.2,26.6,86,30.01,10.0,Calm,Calm,-,N/A,,Clear,0,2013-03-24 12:12:00
8:33 AM,32.0,23.0,69,30.01,10.0,Calm,Calm,-,N/A,,Clear,0,2013-03-24 12:33:00
8:54 AM,33.8,26.6,75,30.00,10.0,Calm,Calm,-,N/A,,Clear,0,2013-03-24 12:54:00
9:12 AM,35.6,23.0,60,29.99,10.0,Calm,Calm,-,N/A,,Clear,0,2013-03-24 13:12:00
9:33 AM,37.4,21.2,52,29.96,10.0,NNE,9.2,-,N/A,,Clear,20,2013-03-24 13:33:00
9:54 AM,37.4,21.2,52,29.96,10.0,NNE,8.1,-,N/A,,Clear,20,2013-03-24 13:54:00
10:12 AM,37.4,21.2,52,29.96,10.0,NNE,6.9,-,N/A,,Clear,20,2013-03-24 14:12:00
10:33 AM,39.2,21.2,49,29.94,10.0,ENE,6.9,-,N/A,,Clear,70,2013-03-24 14:33:00
10:54 AM,39.2,19.4,45,29.93,10.0,East,6.9,-,N/A,,Clear,80,2013-03-24 14:54:00
11:12 AM,41.0,19.4,42,29.93,10.0,East,8.1,-,N/A,,Clear,80,2013-03-24 15:12:00
11:33 AM,39.2,19.4,45,29.93,10.0,East,4.6,-,N/A,,Clear,80,2013-03-24 15:33:00
11:54 AM,39.2,19.4,45,29.93,10.0,ENE,4.6,-,N/A,,Clear,70,2013-03-24 15:54:00
12:15 PM,41.0,19.4,42,29.91,10.0,East,4.6,-,N/A,,Clear,80,2013-03-24 16:15:00
12:33 PM,41.0,19.4,42,29.90,10.0,ENE,4.6,-,N/A,,Clear,60,2013-03-24 16:33:00
12:54 PM,41.0,19.4,42,29.88,10.0,ENE,3.5,-,N/A,,Clear,70,2013-03-24 16:54:00
1:15 PM,41.0,21.2,45,29.85,10.0,ENE,5.8,-,N/A,,Clear,60,2013-03-24 17:15:00
1:33 PM,41.0,21.2,45,29.84,10.0,East,6.9,-,N/A,,Clear,80,2013-03-24 17:33:00
1:54 PM,41.0,21.2,45,29.82,10.0,East,6.9,-,N/A,,Clear,90,2013-03-24 17:54:00
2:15 PM,41.0,21.2,45,29.80,10.0,NE,3.5,-,N/A,,Clear,40,2013-03-24 18:15:00
2:33 PM,41.0,21.2,45,29.80,10.0,ESE,3.5,-,N/A,,Clear,110,2013-03-24 18:33:00
2:54 PM,41.0,21.2,45,29.78,10.0,SE,6.9,-,N/A,,Scattered Clouds,130,2013-03-24 18:54:00
3:15 PM,41.0,21.2,45,29.76,10.0,East,8.1,-,N/A,,Scattered Clouds,80,2013-03-24 19:15:00
3:33 PM,41.0,21.2,45,29.75,10.0,East,4.6,-,N/A,,Scattered Clouds,80,2013-03-24 19:33:00
3:54 PM,41.0,21.2,45,29.75,10.0,ENE,4.6,-,N/A,,Overcast,70,2013-03-24 19:54:00
4:15 PM,41.0,21.2,45,29.75,10.0,Calm,Calm,-,N/A,,Overcast,0,2013-03-24 20:15:00
4:33 PM,41.0,21.2,45,29.74,10.0,NNE,5.8,-,N/A,,Overcast,30,2013-03-24 20:33:00
4:54 PM,41.0,21.2,45,29.74,10.0,NE,3.5,-,N/A,,Overcast,40,2013-03-24 20:54:00
5:15 PM,41.0,21.2,45,29.73,10.0,North,5.8,-,N/A,,Overcast,10,2013-03-24 21:15:00
5:33 PM,41.0,21.2,45,29.74,10.0,ENE,3.5,-,N/A,,Overcast,60,2013-03-24 21:33:00
5:54 PM,41.0,21.2,45,29.75,10.0,East,3.5,-,N/A,,Overcast,90,2013-03-24 21:54:00
6:15 PM,39.2,21.2,49,29.75,10.0,ESE,3.5,-,N/A,,Overcast,120,2013-03-24 22:15:00
6:33 PM,39.2,21.2,49,29.75,10.0,Calm,Calm,-,N/A,,Overcast,0,2013-03-24 22:33:00
6:54 PM,39.2,21.2,49,29.75,10.0,Calm,Calm,-,N/A,,Overcast,0,2013-03-24 22:54:00
7:15 PM,39.2,23.0,52,29.75,10.0,SSE,8.1,-,N/A,,Overcast,150,2013-03-24 23:15:00
7:33 PM,37.4,26.6,65,29.75,10.0,SE,9.2,-,N/A,,Overcast,140,2013-03-24 23:33:00
7:54 PM,35.6,30.2,81,29.75,10.0,SE,10.4,-,N/A,,Overcast,140,2013-03-24 23:54:00
8:15 PM,35.6,30.2,81,29.75,10.0,SSE,5.8,-,N/A,,Overcast,150,2013-03-25 00:15:00
8:36 PM,35.6,30.2,81,29.75,10.0,South,9.2,-,N/A,,Overcast,170,2013-03-25 00:36:00
8:54 PM,33.8,32.0,93,29.75,7.0,South,6.9,-,N/A,,Overcast,170,2013-03-25 00:54:00
9:15 PM,33.8,32.0,93,29.74,5.0,SSE,4.6,-,N/A,,Overcast,160,2013-03-25 01:15:00
9:36 PM,33.8,32.0,93,29.71,7.0,SE,5.8,-,N/A,,Overcast,130,2013-03-25 01:36:00
9:54 PM,33.8,32.0,93,29.71,7.0,SE,3.5,-,N/A,,Overcast,140,2013-03-25 01:54:00
10:15 PM,33.8,32.0,93,29.72,5.0,Calm,Calm,-,N/A,,Overcast,0,2013-03-25 02:15:00
10:36 PM,33.8,32.0,93,29.71,5.0,Calm,Calm,-,N/A,,Overcast,0,2013-03-25 02:36:00
10:54 PM,33.8,32.0,93,29.71,7.0,East,4.6,-,N/A,,Overcast,100,2013-03-25 02:54:00
11:15 PM,33.8,32.0,93,29.71,5.0,Calm,Calm,-,N/A,,Overcast,0,2013-03-25 03:15:00
11:36 PM,33.8,32.0,93,29.71,5.0,Calm,Calm,-,N/A,,Overcast,0,2013-03-25 03:36:00
11:54 PM,33.8,32.0,93,29.69,5.0,Calm,Calm,-,N/A,,Overcast,0,2013-03-25 03:54:00